Detroit Lakes, MN

9:02 PM CDT on April 24, 2017 (GMT -0500)
Detroit Lakes

Weather History for KDTL - November, 2012

Change the Weather History Date:

Sunday, November 4, 2012

  Actual Average Record
Temperature  
Mean Temperature 34 °F -  
Max Temperature 37 °F 40 °F 69 °F (1975)
Min Temperature 32 °F 24 °F -8 °F (1991)
Degree Days  
Heating Degree Days 30    
Moisture  
Dew Point 30 °F    
Average Humidity 83    
Maximum Humidity 93    
Minimum Humidity 75    
Precipitation  
Precipitation 0.00 in - - ()
Sea Level Pressure  
Sea Level Pressure 30.19 in    
Wind  
Wind Speed 2 mph (ESE)    
Max Wind Speed 8 mph    
Max Gust Speed -    
Visibility 10 miles    
Events      
Averages and records for this station are not official NWS values.
T = Trace of Precipitation, MM = Missing Value Source: NWS Daily Summary

Daily Weather History Graph

Daily Weather History Graph

Search for Another Location

Airport or City:

Trip Planner

Search our weather history database for the weather conditions in past years. The results will help you decide how hot, cold, wet, or windy it might be!

Date:

Astronomy

Nov. 04, 2012 Rise Set
Actual Time 7:11 AM CST 5:02 PM CST
Civil Twilight 6:39 AM CST 5:34 PM CST
Nautical Twilight 6:02 AM CST 6:10 PM CST
Astronomical Twilight 5:27 AM CST 6:45 PM CST
Moon 9:38 PM CST (11/4) 11:59 AM CST (11/4)
Length of Visible Light 10h 55m
Length of Day
9h 51m
Waning Gibbous, 72% of the Moon is Illuminated
Nov 4
Waning Gibbous
Nov 6
Last Quarter
Nov 13
New
Nov 20
First Quarter
Nov 28
Full

Hourly Weather History & Observations

Time (CST) Temp. Windchill Dew Point Humidity Pressure Visibility Wind Dir Wind Speed Gust Speed Precip Events Conditions
12:13 AM 33.8 °F - 28.4 °F 81% 30.20 in 10.0 mi Calm Calm - N/A   Mostly Cloudy
12:32 AM 33.8 °F - 28.4 °F 81% 30.20 in 10.0 mi Calm Calm - N/A   Mostly Cloudy
12:53 AM 33.8 °F - 28.4 °F 81% 30.20 in 10.0 mi Calm Calm - N/A   Mostly Cloudy
1:13 AM 33.8 °F - 28.4 °F 81% 30.21 in 10.0 mi Calm Calm - N/A   Overcast
1:32 AM 32.0 °F 28.7 °F 28.4 °F 87% 30.21 in 10.0 mi ENE 3.5 mph - N/A   Overcast
1:53 AM 33.8 °F - 28.4 °F 81% 30.21 in 10.0 mi Calm Calm - N/A   Overcast
1:13 AM 33.8 °F - 28.4 °F 81% 30.21 in 10.0 mi Calm Calm - N/A   Overcast
1:32 AM 33.8 °F - 28.4 °F 81% 30.21 in 10.0 mi Calm Calm - N/A   Mostly Cloudy
1:53 AM 33.8 °F - 28.4 °F 81% 30.21 in 10.0 mi Calm Calm - N/A   Overcast
2:09 AM 33.8 °F - 28.4 °F 81% 30.22 in 10.0 mi Calm Calm - N/A   Overcast
2:32 AM 33.8 °F - 28.4 °F 81% 30.21 in 10.0 mi Calm Calm - N/A   Overcast
2:53 AM 32.0 °F 28.7 °F 30.2 °F 93% 30.21 in 10.0 mi East 3.5 mph - N/A   Overcast
3:13 AM 32.0 °F 28.7 °F 30.2 °F 93% 30.21 in 10.0 mi East 3.5 mph - N/A   Overcast
3:32 AM 32.0 °F - 30.2 °F 93% 30.21 in 10.0 mi Calm Calm - N/A   Overcast
3:53 AM 32.0 °F - 30.2 °F 93% 30.20 in 10.0 mi Calm Calm - N/A   Overcast
4:13 AM 32.0 °F - 30.2 °F 93% 30.20 in 10.0 mi Calm Calm - N/A   Overcast
4:32 AM 33.8 °F - 30.2 °F 87% 30.21 in 10.0 mi Calm Calm - N/A   Overcast
4:53 AM 33.8 °F - 30.2 °F 87% 30.20 in 10.0 mi Calm Calm - N/A   Overcast
5:13 AM 33.8 °F - 30.2 °F 87% 30.21 in 10.0 mi Calm Calm - N/A   Overcast
5:32 AM 33.8 °F 30.8 °F 30.2 °F 87% 30.20 in 10.0 mi East 3.5 mph - N/A   Overcast
5:53 AM 33.8 °F - 30.2 °F 87% 30.20 in 10.0 mi Calm Calm - N/A   Overcast
6:13 AM 33.8 °F - 30.2 °F 87% 30.20 in 10.0 mi Calm Calm - N/A   Overcast
6:32 AM 33.8 °F 30.8 °F 30.2 °F 87% 30.20 in 10.0 mi SE 3.5 mph - N/A   Overcast
6:53 AM 33.8 °F 28.6 °F 30.2 °F 87% 30.19 in 10.0 mi SE 5.8 mph - N/A   Overcast
7:12 AM 33.8 °F 29.6 °F 30.2 °F 87% 30.19 in 10.0 mi SE 4.6 mph - N/A   Overcast
7:32 AM 33.8 °F 30.8 °F 30.2 °F 87% 30.20 in 10.0 mi SE 3.5 mph - N/A   Overcast
7:53 AM 33.8 °F 28.6 °F 30.2 °F 87% 30.20 in 10.0 mi SE 5.8 mph - N/A   Overcast
8:12 AM 33.8 °F 28.6 °F 32.0 °F 93% 30.20 in 10.0 mi SE 5.8 mph - N/A   Mostly Cloudy
8:32 AM 33.8 °F 28.6 °F 30.2 °F 87% 30.20 in 10.0 mi ESE 5.8 mph - N/A   Overcast
8:53 AM 33.8 °F 28.6 °F 30.2 °F 87% 30.19 in 10.0 mi SE 5.8 mph - N/A   Overcast
9:12 AM 33.8 °F 28.6 °F 30.2 °F 87% 30.19 in 10.0 mi ESE 5.8 mph - N/A   Mostly Cloudy
9:32 AM 33.8 °F 30.8 °F 30.2 °F 87% 30.19 in 10.0 mi SE 3.5 mph - N/A   Overcast
9:53 AM 35.6 °F 30.7 °F 30.2 °F 81% 30.18 in 10.0 mi SE 5.8 mph - N/A   Overcast
10:12 AM 35.6 °F 30.7 °F 30.2 °F 81% 30.18 in 10.0 mi SE 5.8 mph - N/A   Overcast
10:32 AM 35.6 °F 30.7 °F 30.2 °F 81% 30.18 in 10.0 mi SE 5.8 mph - N/A   Mostly Cloudy
10:53 AM 35.6 °F 30.7 °F 30.2 °F 81% 30.18 in 10.0 mi SE 5.8 mph - N/A   Overcast
11:13 AM 35.6 °F 29.9 °F 30.2 °F 81% 30.18 in 10.0 mi SE 6.9 mph - N/A   Overcast
11:32 AM 35.6 °F 29.9 °F 30.2 °F 81% 30.18 in 10.0 mi SE 6.9 mph - N/A   Overcast
11:53 AM 35.6 °F 29.2 °F 30.2 °F 81% 30.17 in 10.0 mi SSE 8.1 mph - N/A   Overcast
12:13 PM 37.4 °F 32.1 °F 30.2 °F 75% 30.17 in 10.0 mi SE 6.9 mph - N/A   Overcast
12:32 PM 37.4 °F 32.1 °F 32.0 °F 81% 30.16 in 10.0 mi SE 6.9 mph - N/A   Overcast
12:53 PM 37.4 °F 32.8 °F 30.2 °F 75% 30.16 in 10.0 mi SE 5.8 mph - N/A   Overcast
1:12 PM 37.4 °F 32.1 °F 30.2 °F 75% 30.16 in 10.0 mi SE 6.9 mph - N/A   Overcast
1:33 PM 37.4 °F 32.8 °F 30.2 °F 75% 30.16 in 10.0 mi SE 5.8 mph - N/A   Overcast
1:53 PM 37.4 °F 32.1 °F 30.2 °F 75% 30.16 in 10.0 mi SE 6.9 mph - N/A   Overcast
2:12 PM 37.4 °F 32.1 °F 30.2 °F 75% 30.15 in 10.0 mi SE 6.9 mph - N/A   Overcast
2:33 PM 35.6 °F 30.7 °F 30.2 °F 81% 30.15 in 10.0 mi SE 5.8 mph - N/A   Overcast
2:53 PM 37.4 °F 33.8 °F 30.2 °F 75% 30.15 in 10.0 mi ESE 4.6 mph - N/A   Overcast
3:12 PM 37.4 °F 32.8 °F 32.0 °F 81% 30.16 in 10.0 mi SE 5.8 mph - N/A   Overcast
3:33 PM 37.4 °F 32.1 °F 32.0 °F 81% 30.16 in 10.0 mi ESE 6.9 mph - N/A   Overcast
3:53 PM 37.4 °F 33.8 °F 32.0 °F 81% 30.16 in 10.0 mi SE 4.6 mph - N/A   Mostly Cloudy
4:12 PM 35.6 °F 32.8 °F 32.0 °F 87% 30.16 in 10.0 mi ESE 3.5 mph - N/A   Mostly Cloudy
4:33 PM 35.6 °F 30.7 °F 32.0 °F 87% 30.16 in 10.0 mi ESE 5.8 mph - N/A   Mostly Cloudy
4:53 PM 35.6 °F 32.8 °F 32.0 °F 87% 30.16 in 10.0 mi East 3.5 mph - N/A   Overcast
5:12 PM 35.6 °F 32.8 °F 32.0 °F 87% 30.16 in 10.0 mi East 3.5 mph - N/A   Overcast
5:33 PM 35.6 °F 32.8 °F 30.2 °F 81% 30.17 in 10.0 mi ESE 3.5 mph - N/A   Overcast
5:53 PM 35.6 °F 31.7 °F 30.2 °F 81% 30.17 in 10.0 mi East 4.6 mph - N/A   Overcast
6:12 PM 35.6 °F 32.8 °F 30.2 °F 81% 30.18 in 10.0 mi East 3.5 mph - N/A   Overcast
6:33 PM 35.6 °F 32.8 °F 30.2 °F 81% 30.18 in 10.0 mi East 3.5 mph - N/A   Overcast
6:53 PM 35.6 °F - 30.2 °F 81% 30.19 in 10.0 mi Calm Calm - N/A   Overcast
7:12 PM 35.6 °F - 30.2 °F 81% 30.19 in 10.0 mi Calm Calm - N/A   Overcast
7:33 PM 35.6 °F - 30.2 °F 81% 30.19 in 10.0 mi Calm Calm - N/A   Overcast
7:53 PM 35.6 °F 32.8 °F 30.2 °F 81% 30.19 in 10.0 mi East 3.5 mph - N/A   Overcast
8:12 PM 35.6 °F - 30.2 °F 81% 30.19 in 10.0 mi Calm Calm - N/A   Mostly Cloudy
8:33 PM 35.6 °F - 30.2 °F 81% 30.19 in 10.0 mi Calm Calm - N/A   Overcast
8:53 PM 35.6 °F - 30.2 °F 81% 30.19 in 10.0 mi Calm Calm - N/A   Overcast
9:12 PM 35.6 °F - 30.2 °F 81% 30.19 in 10.0 mi Calm Calm - N/A   Overcast
9:33 PM 35.6 °F - 30.2 °F 81% 30.20 in 10.0 mi Calm Calm - N/A   Overcast
9:52 PM 35.6 °F - 30.2 °F 81% 30.20 in 10.0 mi Calm Calm - N/A   Overcast
10:12 PM 35.6 °F - 30.2 °F 81% 30.20 in 10.0 mi Calm Calm - N/A   Overcast
10:33 PM 35.6 °F - 30.2 °F 81% 30.21 in 10.0 mi Calm Calm - N/A   Overcast